Find GPS IIF-8

NORAD ID: 40294 Int'l Des: 2014-068 Owner: AFSMC Country: US Constellation: GPS operational
MEOCIRCULARGNSS

Live-Position

3D-Globus wird geladen...

Über GPS IIF-8

Beschreibung wird geladen...

Nächste Überflüge

Passes for default location (London). Set your location on the main map for personalized predictions.

Höhenverlauf

Loading altitude history...

Zweizeiliger Elementsatz

1 40294U 14068A 26120.06189993 -.00000105 00000-0 00000+0 0 9990
2 40294 56.9564 32.8091 0065437 68.9719 291.7324 2.00573384 84242
Epoch: 30. Apr. 2026 • Age: 32 hours

Aktueller Status

Höhe 20369.4 km
Geschwindigkeit 3.85 km/s
Subsatellitenpunkt -46.56°S, 103.74°W
Startdatum 29. Okt. 2014
Alter 11.5 years
Typ navigation

Technische Details

Klassifizierung Payload
Masse 1630.00 kg
Trockenmasse 1500.00 kg
Gesamtmasse 1630.00 kg
Länge 2.50 m
Durchmesser 1.80 m
Spannweite 18.00 m
Form Box + 2 Pan
Hersteller BOES
Bus-Typ GPS IIF
Phasenstatus In Orbit
Besitzer/Staat AFSMC/US

Most Searched